Wind_Speed
27 22 11 20 22 20 24 29 33 33 37 31 31 35 32 20 24 31 20 18 26 30 35 37 42 44 44 46 44 39 41 45 39 34 28 20 28 36 44 46 45 50 50 50
28 17 9 22 19 19 22 29 31 34 28 42 42 27 13 15 24 11 17 26 33 39 42 44 48 52 58 62 63 62 62 58 52 48 41 30 22 33 36 41 45 50 54 51
28 15 17 20 18 23 24 30 30 34 41 33 23 22 8 17 7 17 31 35 31 38 43 57 61 66 68 68 66 64 65 62 49 52 53 45 26 25 37 41 43 54 56 53
15 11 22 18 19 24 25 23 24 32 40 30 28 12 13 10 18 32 34 30 35 39 54 55 62 59 63 67 66 58 47 48 40 37 43 40 47 38 25 40 40 47 55 59
15 22 15 17 23 20 20 23 26 38 47 25 9 9 6 9 25 30 30 36 45 50 54 55 53 54 52 52 53 55 48 40 35 31 36 37 38 47 35 29 40 45 50 45
21 15 21 16 16 21 20 24 33 23 22 6 10 5 14 21 12 21 29 40 45 56 51 52 51 57 59 56 55 53 45 41 40 37 32 38 39 41 51 41 40 36 48 49
16 22 13 12 18 15 14 21 11 6 3 6 7 17 17 13 13 23 29 43 57 50 51 56 59 65 65 64 59 53 46 42 39 39 37 33 40 40 44 46 46 45 42 55
9 7 12 15 19 15 14 4 4 7 6 19 32 8 4 14 18 22 42 53 49 50 60 64 66 67 54 60 63 57 56 47 40 40 40 36 38 40 41 46 55 50 33 48
7 9 12 17 18 13 8 8 13 10 13 9 10 8 18 17 16 36 44 49 47 57 66 68 66 68 74 73 74 64 54 48 43 39 40 36 40 41 40 41 50 61 45 30
14 10 14 20 17 15 13 14 4 5 4 7 14 28 13 19 36 52 60 53 59 67 71 69 70 75 84 85 76 64 50 42 40 40 39 38 41 41 39 43 48 52 59 34
16 14 11 16 14 14 15 12 11 8 7 4 7 14 17 29 30 53 49 54 61 70 70 73 77 82 89 84 72 65 58 49 40 36 37 40 42 42 39 44 42 56 51 59
18 11 11 15 21 20 16 17 20 6 7 14 15 28 20 22 43 41 43 47 64 68 69 76 84 89 85 73 66 60 52 48 42 38 40 40 43 44 40 39 44 52 48 53
13 10 5 5 7 9 20 18 23 18 14 22 9 14 25 38 42 42 46 58 68 69 71 79 84 84 79 66 59 53 44 40 41 43 41 44 44 40 46 36 41 46 50 51
24 25 23 20 20 18 17 20 24 19 14 17 34 46 46 40 39 47 59 64 67 70 75 79 82 84 76 62 55 53 48 41 39 41 46 48 50 51 40 36 40 38 51 52
28 27 25 28 27 30 33 33 29 30 30 25 37 32 40 35 37 51 57 64 69 72 75 79 81 84 75 60 53 51 49 48 44 42 44 48 52 53 44 41 37 36 47 46
27 26 28 31 30 28 30 27 27 26 27 32 36 41 28 39 36 49 56 63 68 69 73 78 80 83 78 64 52 48 46 45 48 42 43 44 48 52 49 43 38 37 43 46
27 27 19 24 23 17 22 26 20 22 24 22 27 28 39 40 45 50 57 63 66 67 71 74 77 81 77 67 57 50 47 45 48 49 43 39 42 48 49 45 43 37 39 46
28 23 19 19 17 8 14 10 18 29 18 23 27 34 24 43 49 52 45 59 65 67 69 72 74 79 75 63 58 51 46 43 46 46 37 36 39 40 46 46 45 36 40 49
27 25 18 9 9 23 26 28 25 17 27 26 24 20 36 42 51 52 51 57 60 63 65 69 72 78 81 71 62 53 46 42 41 43 37 33 34 34 45 47 44 35 40 46
27 25 24 14 5 6 3 12 16 22 26 10 15 34 39 43 51 57 57 58 61 61 63 67 70 75 81 74 65 53 45 40 38 37 39 31 33 33 45 42 40 35 39 42
25 24 32 27 13 18 19 21 23 9 14 26 37 37 37 41 45 53 55 56 59 60 61 65 66 73 78 76 68 55 46 39 35 33 35 31 27 32 40 37 37 35 36 40
26 20 19 20 13 17 8 13 19 23 34 35 35 35 37 40 46 51 54 56 59 59 61 64 66 68 74 76 69 59 48 39 32 27 27 27 19 27 33 35 35 35 36 42
24 32 21 20 13 13 25 23 29 32 33 32 33 34 38 42 46 50 53 54 57 58 59 62 64 67 71 73 68 59 50 39 30 23 21 19 12 22 32 34 33 34 35 44
28 24 34 29 33 27 24 28 31 30 28 30 31 33 38 41 45 48 51 54 55 57 58 60 62 66 69 72 70 58 53 42 32 24 17 13 10 19 28 29 34 29 33 41
24 23 31 37 30 27 24 25 23 27 29 28 30 33 36 41 44 47 50 52 53 55 55 55 60 62 66 71 70 61 52 44 32 24 15 8 8 17 22 26 29 26 24 34
26 27 31 35 21 24 27 27 27 27 24 26 30 32 36 40 43 45 47 50 52 53 54 52 53 56 61 67 68 68 52 43 35 25 13 8 5 10 16 20 25 27 26 29
Wind_Direction
323 320 300 321 320 305 298 294 303 309 311 315 320 319 322 312 313 306 288 303 305 307 305 308 309 307 302 301 296 294 301 296 295 295 299 303 250 247 242 234 233 227 231 230
320 315 287 320 313 300 300 297 304 310 312 318 324 324 319 305 301 279 315 316 310 309 311 313 309 307 307 307 307 310 307 301 296 289 287 288 295 248 250 235 235 230 229 232
316 293 303 316 304 297 298 298 301 305 315 316 313 317 303 302 266 308 313 308 310 313 318 321 319 317 317 318 318 317 313 312 309 299 292 281 266 281 249 241 241 236 231 230
307 283 309 299 286 290 295 294 289 303 312 310 311 287 301 217 300 307 304 304 310 315 315 317 313 311 313 314 316 318 314 306 308 302 294 290 285 270 272 245 257 234 231 224
284 294 290 288 290 286 282 285 290 300 298 302 308 244 235 261 300 296 299 311 316 322 317 316 315 320 317 314 312 313 314 299 309 303 285 280 274 277 261 275 245 241 231 234
282 270 289 276 270 281 280 287 297 299 292 258 162 360 274 297 282 298 308 316 316 318 323 321 320 318 320 318 316 312 306 305 301 304 301 277 268 268 262 255 263 244 238 230
275 282 269 248 264 263 284 313 320 307 284 282 209 322 287 263 295 314 317 312 325 329 327 329 327 326 326 326 320 318 311 305 299 294 297 282 265 262 259 262 258 247 238 230
259 251 244 251 235 260 293 268 244 278 302 295 303 226 248 251 298 297 315 326 331 331 334 333 332 335 334 333 329 323 317 311 301 291 290 286 267 265 256 251 259 257 241 238
253 243 225 241 248 266 283 259 267 256 276 283 265 264 299 269 277 318 330 329 331 335 336 333 335 331 330 327 323 319 310 301 292 289 282 280 274 272 263 245 251 256 235 233
264 260 233 252 254 260 241 268 243 197 279 289 285 299 270 311 314 325 329 332 333 337 336 332 330 331 331 329 325 320 311 296 286 280 278 274 271 268 269 250 244 248 253 230
259 249 260 222 241 246 255 221 211 209 235 264 295 293 304 311 325 325 327 330 332 336 333 334 333 334 332 329 324 318 311 301 284 271 267 267 266 268 261 267 247 243 245 245
252 263 236 248 264 264 240 225 216 216 244 234 275 278 296 324 318 326 323 326 331 335 334 335 338 335 331 325 320 315 307 296 285 273 265 253 262 267 261 265 258 236 244 242
243 243 265 264 259 250 214 230 235 257 239 242 242 263 312 310 323 322 323 329 334 336 335 340 337 333 332 327 322 319 317 305 285 269 258 252 244 256 256 257 251 245 237 232
264 252 257 255 280 276 247 249 263 238 230 260 240 272 311 316 317 322 329 333 336 338 340 336 335 337 334 328 323 319 317 309 297 279 261 249 249 250 251 255 249 253 237 234
250 259 265 267 271 277 273 272 262 238 244 249 280 282 305 311 311 323 330 333 338 341 338 337 336 339 335 327 319 313 315 318 309 289 272 259 247 247 248 248 246 256 238 232
246 265 271 276 288 281 274 273 260 250 248 251 270 289 309 301 315 325 333 335 339 338 338 337 338 341 336 328 318 314 312 318 311 296 281 266 256 246 242 242 240 250 238 228
257 251 261 279 283 283 278 283 263 250 269 268 264 296 302 316 321 330 335 339 335 338 338 340 341 344 338 331 321 314 313 316 320 311 284 269 259 246 236 235 235 245 236 228
244 245 262 271 279 252 265 224 275 289 269 282 286 295 300 314 321 332 339 335 337 337 340 341 344 345 342 337 331 318 314 315 316 318 293 274 259 249 229 229 229 235 226 221
246 247 251 241 227 273 275 275 268 276 287 299 282 286 307 320 323 332 337 337 338 337 340 342 348 350 346 344 339 329 317 312 313 318 312 280 261 246 222 222 226 229 219 212
227 228 232 231 234 255 250 250 253 295 296 276 264 304 318 326 331 332 335 338 338 337 338 343 349 352 350 347 341 333 322 315 315 317 317 298 259 241 220 218 227 224 218 211
196 213 224 232 242 267 268 262 265 267 293 292 303 309 316 326 332 331 333 336 337 337 341 343 351 356 353 349 344 341 329 322 317 317 318 308 264 235 216 214 224 221 216 213
206 208 218 219 224 262 244 236 231 283 292 297 299 306 313 325 328 333 334 334 336 338 342 344 352 357 357 354 346 345 339 330 323 316 319 317 260 221 207 215 221 217 214 212
220 219 232 222 235 254 291 276 280 284 292 294 296 305 312 318 325 333 333 334 335 338 343 345 351 356 359 357 352 348 346 339 333 322 319 317 274 211 208 220 223 216 213 212
226 232 239 247 253 281 283 283 284 288 287 291 296 305 311 318 322 330 333 334 335 339 343 345 350 356 357 359 358 353 353 350 341 336 325 311 273 226 219 223 228 215 213 215
241 238 249 258 277 285 288 284 280 285 291 291 295 303 310 318 324 328 332 335 336 338 342 346 349 357 356 359 360 358 357 355 354 340 331 308 266 237 230 235 237 235 233 225
244 258 259 274 288 281 287 284 290 293 290 292 297 302 312 319 324 328 331 334 336 338 340 344 349 358 358 358 1 2 359 359 359 356 339 310 264 236 238 239 244 246 250 236
Height
3140 3138 3134 3131 3127 3123 3118 3114 3108 3106 3103 3097 3103 3097 3094 3084 3079 3073 3068 3065 3061 3057 3052 3047 3040 3036 3030 3026 3022 3019 3013 3007 3003 2998 2994 2990 2987 2989 2989 2989 2994 2998 3005 3010
3136 3131 3130 3127 3123 3119 3116 3110 3106 3101 3097 3092 3090 3087 3082 3078 3071 3067 3065 3062 3055 3050 3046 3040 3036 3030 3019 3012 3006 3002 2998 2995 2991 2987 2983 2981 2978 2976 2978 2980 2982 2986 2991 2999
3130 3128 3126 3123 3119 3115 3113 3108 3104 3097 3091 3091 3085 3083 3080 3071 3067 3063 3060 3056 3051 3046 3038 3030 3024 3016 3007 3000 2992 2990 2985 2980 2977 2973 2968 2968 2966 2966 2964 2968 2968 2974 2979 2984
3124 3122 3121 3118 3115 3112 3108 3105 3100 3095 3089 3083 3089 3077 3075 3068 3063 3057 3051 3048 3044 3040 3035 3028 3019 3010 3002 2993 2986 2979 2974 2970 2964 2960 2956 2953 2952 2951 2952 2952 2958 2962 2966 2970
3121 3117 3115 3113 3111 3108 3105 3101 3098 3093 3083 3078 3078 3077 3067 3064 3058 3053 3048 3044 3041 3036 3031 3021 3012 3004 2996 2987 2978 2970 2964 2958 2955 2950 2946 2941 2938 2939 2939 2940 2938 2949 2954 2953
3113 3111 3110 3107 3105 3103 3101 3097 3093 3084 3078 3072 3069 3072 3060 3058 3054 3048 3045 3039 3036 3030 3019 3012 3005 2995 2985 2977 2968 2958 2951 2945 2942 2938 2934 2930 2926 2924 2926 2928 2928 2931 2941 2945
3109 3105 3102 3102 3100 3098 3098 3095 3090 3080 3073 3065 3064 3063 3060 3050 3048 3044 3039 3033 3029 3019 3009 3002 2991 2981 2971 2961 2953 2945 2938 2933 2930 2927 2923 2919 2915 2913 2912 2914 2916 2917 2922 2931
3103 3100 3098 3096 3095 3095 3092 3093 3095 3089 3077 3060 3059 3053 3048 3047 3044 3039 3034 3026 3019 3010 3002 2991 2980 2970 2959 2951 2943 2936 2928 2919 2916 2914 2911 2907 2904 2900 2900 2902 2900 2901 2903 2915
3096 3092 3091 3091 3090 3092 3089 3089 3088 3085 3082 3074 3051 3047 3045 3038 3037 3031 3025 3015 3007 2999 2990 2978 2969 2959 2950 2938 2928 2920 2912 2905 2901 2899 2896 2895 2891 2889 2888 2889 2888 2890 2893 2895
3090 3090 3087 3085 3086 3084 3084 3085 3084 3085 3080 3070 3044 3043 3042 3034 3029 3021 3009 3002 2993 2985 2974 2964 2954 2945 2931 2919 2906 2898 2894 2888 2885 2883 2882 2880 2877 2875 2872 2872 2876 2878 2878 2884
3083 3084 3081 3080 3076 3075 3075 3075 3076 3078 3078 3070 3055 3032 3035 3030 3024 3015 3004 2996 2986 2979 2967 2955 2942 2930 2914 2897 2885 2877 2872 2869 2867 2866 2865 2865 2863 2861 2861 2859 2862 2865 2867 2871
3077 3074 3075 3074 3070 3067 3066 3066 3066 3069 3068 3063 3058 3025 3025 3022 3019 3009 2998 2989 2981 2971 2958 2944 2927 2910 2897 2881 2869 2860 2852 2848 2847 2848 2848 2847 2848 2846 2847 2846 2848 2853 2854 2860
3071 3068 3068 3064 3065 3060 3057 3057 3056 3056 3058 3050 3049 3021 3020 3018 3009 3001 2991 2980 2969 2959 2945 2930 2916 2900 2882 2866 2855 2845 2838 2831 2827 2826 2828 2830 2827 2829 2830 2834 2835 2838 2840 2847
3066 3061 3063 3059 3056 3055 3053 3052 3049 3047 3046 3033 3025 3010 3004 3007 3000 2990 2980 2971 2960 2948 2934 2922 2904 2885 2868 2855 2844 2834 2829 2822 2815 2810 2808 2808 2811 2811 2815 2819 2821 2824 2826 2830
3056 3050 3050 3048 3050 3046 3043 3042 3039 3038 3034 3028 3010 3012 3005 3004 2995 2985 2975 2961 2948 2935 2924 2911 2892 2872 2856 2844 2834 2825 2818 2810 2801 2796 2793 2791 2792 2794 2800 2806 2808 2812 2814 2818
3046 3042 3041 3037 3040 3035 3028 3026 3024 3023 3023 3016 3011 3000 3001 2992 2988 2979 2968 2952 2939 2928 2915 2901 2882 2862 2844 2831 2820 2810 2804 2797 2788 2780 2775 2774 2774 2777 2783 2791 2794 2797 2801 2807
3041 3039 3036 3031 3030 3026 3019 3010 3009 3011 3010 3008 3004 2999 2991 2982 2978 2970 2956 2943 2932 2919 2907 2891 2873 2853 2834 2817 2804 2795 2790 2782 2774 2765 2759 2758 2757 2760 2766 2774 2780 2784 2789 2797
3028 3032 3033 3028 3028 3022 3006 3004 3005 3003 3001 2999 2994 2990 2985 2978 2969 2964 2955 2941 2926 2912 2898 2884 2865 2845 2828 2809 2794 2784 2778 2769 2761 2754 2745 2742 2742 2744 2752 2760 2767 2773 2779 2788
3022 3023 3026 3023 3016 3007 3006 3000 2997 2995 2993 2992 2987 2984 2980 2971 2960 2957 2950 2937 2923 2909 2894 2877 2857 2837 2819 2797 2784 2774 2766 2758 2750 2742 2735 2731 2730 2732 2739 2748 2756 2762 2768 2775
3010 3013 3018 3014 3011 3002 2993 2994 2992 2990 2982 2980 2979 2977 2968 2960 2948 2939 2933 2925 2913 2904 2891 2872 2852 2833 2812 2791 2778 2766 2755 2748 2740 2733 2725 2721 2719 2722 2728 2738 2746 2753 2759 2766
3003 3005 3003 3006 3005 2992 2989 2988 2986 2987 2984 2975 2972 2967 2961 2953 2948 2936 2927 2919 2908 2893 2882 2868 2851 2828 2808 2788 2773 2760 2747 2739 2732 2726 2719 2712 2710 2712 2721 2732 2738 2745 2752 2757
2992 2996 2994 2998 2999 2989 2981 2981 2980 2976 2971 2968 2965 2960 2953 2947 2940 2932 2921 2910 2899 2887 2874 2862 2844 2827 2808 2789 2770 2756 2742 2732 2726 2721 2715 2709 2704 2707 2716 2725 2733 2738 2743 2749
2983 2979 2980 2982 2977 2977 2976 2975 2971 2967 2964 2960 2956 2952 2946 2941 2932 2924 2914 2905 2894 2881 2868 2856 2841 2823 2809 2791 2771 2753 2739 2727 2721 2717 2714 2710 2707 2710 2717 2723 2728 2733 2736 2740
2972 2974 2972 2971 2969 2969 2969 2967 2963 2960 2957 2954 2949 2945 2940 2934 2927 2918 2907 2897 2887 2876 2863 2849 2837 2821 2805 2792 2774 2756 2738 2726 2719 2714 2712 2710 2712 2715 2719 2721 2725 2729 2733 2738
2965 2967 2965 2960 2961 2958 2958 2956 2955 2954 2950 2947 2943 2939 2933 2927 2920 2911 2901 2892 2881 2870 2861 2848 2833 2820 2804 2791 2775 2757 2742 2730 2720 2714 2712 2711 2713 2715 2717 2720 2723 2726 2731 2734
2954 2956 2954 2951 2954 2950 2948 2946 2946 2945 2942 2939 2936 2932 2927 2921 2913 2905 2896 2886 2875 2866 2855 2846 2836 2821 2806 2794 2777 2762 2748 2735 2724 2718 2714 2711 2711 2712 2716 2719 2722 2723 2727 2729